Weather in Tacoma

United States     47°14′53″N   122°27′51″W
temp.,
°C
wind,
m/s
gust,
m/s
humid.,
%
clouds,
%
prec.,
mm/h
press.,
hPa
HPBL,
m
18 may, tue
tue1823:00+9sw613904 2.6 1014972
02:00+7sw5119220 0.0 1018826
05:00+7ssw5108833 0.1 1019749
08:00+10sw59705 0.1 10201075
11:00+12sw575648 0.6 10201706
14:00+16sw583587 0.4 10192701
17:00+16wsw672999 0.5 10182850
20:00+12wnw365149 0.1 1019893
19 may, wed
wed1923:00+6ssw11845 0.4 102019
02:00+4ssw12943 0.0 102081
05:00+3s119612 0.0 102048
08:00+6sw117967 0.0 1021396
11:00+12ene125330 0.0 10201124
14:00+15nne333489 0.1 10172631
17:00+12wnw555690 0.3 10171261
20:00+10sw12847 1.0 101747
20 may, thu
thu2023:00+6ssw11945 1.0 101821
02:00+4ssw119780 0.0 101925
05:00+4s129699 0.0 102058
08:00+6ssw1390100 0.0 1021241
11:00+12sse2261100 0.0 10201045
14:00+12se3366100 0.0 1020691
17:00+15sse225298 0.0 10191432
20:00+13sse2564100 0.0 1019267
21 may, fri
fri2123:00+9ssw128156 0.0 102082
02:00+6sw12936 0.0 102041
05:00+5ssw119628 0.0 102124
08:00+9sw118181 0.0 1021391
11:00+16w115522 0.0 1020976
14:00+21nnw14390 0.0 10191651
17:00+22n47280 0.0 10171941
20:00+17nw12505 0.0 101747
22 may, sat
sat2223:00+10wsw24864 0.0 1019104
02:00+8sw12937 0.0 101977
05:00+7sw129623 0.0 101957
08:00+10sw238250 0.0 1018379
11:00+18wsw21490 0.0 1017908
14:00+24w12331 0.0 10151643
17:00+25w32300 0.0 10132190
20:00+17wsw48556 0.0 1014490